Weather in Alikovo

Russia / Chuvash Republic     55°44′16″N   46°44′49″E
temp.,
°C
wind,
m/s
gust,
m/s
humid.,
%
clouds,
%
prec.,
mm/h
press.,
hPa
HPBL,
m
7 may, fri
fri700:00+10s41382100 0.0 1012286
03:00+10s51280100 0.0 1012265
06:00+11s51375100 0.0 1012392
09:00+14s71265100 0.0 1011658
12:00+17ssw91357100 0.1 10111633
15:00+16ssw71363100 0.8 10111756
18:00+7nw4992100 1.4 1014400
21:00+6w2294100 1.8 101643
8 may, sat
sat800:00+6wnw2290100 0.0 101814
03:00+5nnw008999 0.0 101810
06:00+7e12825 0.0 1019103
09:00+11ese456422 0.0 1018779
12:00+14ese565551 0.0 10161432
15:00+15se676491 0.0 10141347
18:00+14se5107797 0.1 1012544
21:00+11se41291100 0.1 1011234
9 may, sun
sun900:00+10sse41090100 0.0 1011172
03:00+11sse61484100 0.4 1010619
06:00+10sse51181100 0.3 1010270
09:00+13ssw61173100 0.3 1011725
12:00+12wsw4785100 0.0 1013626
15:00+10wnw5786100 0.4 1015513
18:00+8wnw4893100 2.3 1018533
21:00+6nnw4892100 3.2 1020504
10 may, mon
mon1000:00+6nnw4892100 0.3 1022423
03:00+5nnw399398 0.3 1024284
06:00+6n4988100 0.0 1027460
09:00+10nne68620 0.0 1028832
12:00+13nne56450 0.0 10281358
15:00+14nne45423 0.0 10291708
18:00+13n24604 0.0 103092
21:00+7ene11716 0.0 103110
11 may, tue
tue1100:00+7ne22655 0.0 103211
03:00+6ne116812 0.0 103210
06:00+9ene1267100 0.0 103370
09:00+14e23537 0.0 1034598
12:00+16ese224655 0.0 10331122
15:00+17e2347100 0.0 10311090
18:00+15e2265100 0.0 103124
21:00+11se127135 0.0 103110